CW3359 Weather Reports


time (UTC)temp
C
wind
direction
speed
KPH
gust
KPH
rain 1hr
cm
rain 24hr
cm
rain mn
cm
humidity
%
barometer
mb
20260506024204 10 248 0.0 0.0 0.00 0.00 0.00 91 1004.3
20260506023200 10 248 0.0 0.0 0.00 0.00 0.00 91 1004.3
20260506022640 10 248 0.0 0.0 0.00 0.00 0.00 91 1004.3
20260506021202 11 248 0.0 0.0 0.00 0.00 0.00 91 1004.3
20260506020202 11 248 0.0 0.0 0.00 0.00 0.00 91 1004.4
20260506015202 11 248 0.0 0.0 0.00 0.00 0.00 91 1004.4
20260506014210 11 248 0.0 0.0 0.00 0.00 0.00 90 1004.6
20260506013200 11 248 0.0 0.0 0.00 0.00 0.00 90 1004.6
20260506012200 11 248 0.0 0.0 0.00 0.00 0.00 90 1004.7
20260506011200 11 248 0.0 0.0 0.00 0.00 0.00 90 1004.9
20260506010158 11 248 0.0 0.0 0.00 0.00 0.00 90 1004.9
20260506005202 11 248 0.0 0.0 0.00 0.00 0.00 91 1005.0
20260506004201 11 248 0.0 0.0 0.00 0.00 0.00 91 1005.0
20260506003202 11 248 0.0 0.0 0.00 0.00 0.00 91 1004.9
20260506002157 11 248 0.0 0.0 0.00 0.00 0.00 90 1005.1
20260506001158 11 248 0.0 0.0 0.00 0.00 0.00 90 1005.0
20260506000200 12 248 0.0 0.0 0.00 0.00 0.00 90 1005.1
20260505235157 12 248 0.0 0.0 0.00 0.00 0.00 89 1005.1
20260505234157 12 248 0.0 0.0 0.00 0.00 0.00 90 1005.2
20260505233156 12 248 0.0 0.0 0.00 0.00 0.00 90 1005.3
20260505232156 12 248 0.0 0.0 0.00 0.00 0.00 90 1005.3
20260505231156 12 248 0.0 0.0 0.00 0.00 0.00 91 1005.3
20260505230156 12 248 0.0 1.6 0.00 0.00 0.00 91 1005.3
20260505225155 12 248 0.0 0.0 0.00 0.00 0.00 91 1005.4
20260505224159 12 248 0.0 0.0 0.00 0.00 0.00 91 1005.5
20260505223157 12 248 0.0 0.0 0.00 0.00 0.00 91 1005.4
20260505222157 13 248 0.0 0.0 0.00 0.00 0.00 91 1005.5
20260505221156 13 248 0.0 0.0 0.00 0.00 0.00 91 1005.5
20260505220551 13 248 0.0 0.0 0.00 0.00 0.00 91 1005.4
20260505220324 13 248 0.0 0.0 0.00 0.00 0.00 92 1005.4
20260505214154 13 248 0.0 0.0 0.00 0.00 0.00 91 1005.5
20260505213153 13 248 0.0 0.0 0.00 0.00 0.00 91 1005.5
20260505212154 13 248 0.0 0.0 0.00 0.00 0.00 91 1005.5
20260505211155 13 248 0.0 0.0 0.00 0.00 0.00 91 1005.5
20260505210635 13 248 0.0 0.0 0.00 0.00 0.00 91 1005.7
20260505205152 13 248 0.0 0.0 0.00 0.00 0.00 91 1005.6
20260505204152 13 248 0.0 0.0 0.00 0.00 0.00 91 1005.6
20260505203152 13 248 0.0 0.0 0.00 0.00 0.00 90 1005.7
20260505202634 13 248 0.0 0.0 0.00 0.00 0.00 90 1005.7
20260505201626 13 248 0.0 0.0 0.00 0.00 0.00 90 1005.7
20260505200637 13 248 0.0 0.0 0.00 0.00 0.00 90 1005.7
20260505195152 13 248 0.0 0.0 0.00 0.00 0.00 89 1005.8
20260505194154 13 248 0.0 0.0 0.00 0.00 0.00 89 1005.6
20260505193632 13 248 0.0 0.0 0.00 0.00 0.00 89 1005.6
20260505192154 13 248 0.0 0.0 0.00 0.00 0.00 89 1005.6
20260505191155 13 248 0.0 0.0 0.00 0.00 0.00 88 1005.4
20260505190152 14 248 0.0 0.0 0.00 0.00 0.00 88 1005.5
20260505185152 14 248 0.0 0.0 0.00 0.00 0.00 89 1005.4
20260505184153 14 248 0.0 0.0 0.00 0.00 0.00 89 1005.3
20260505183151 14 248 0.0 0.0 0.00 0.00 0.00 88 1005.4
20260505182151 14 248 0.0 0.0 0.00 0.00 0.00 89 1005.4
20260505181153 14 248 0.0 0.0 0.00 0.00 0.00 88 1005.4
20260505180152 15 248 0.0 0.0 0.00 0.00 0.00 89 1005.4
20260505175153 15 248 0.0 0.0 0.00 0.00 0.00 88 1005.5
20260505174151 15 248 0.0 0.0 0.00 0.00 0.00 88 1005.5
20260505173149 15 248 0.0 0.0 0.00 0.00 0.00 88 1005.5
20260505172638 15 248 0.0 0.0 0.00 0.00 0.00 88 1005.5
20260505171151 15 248 0.0 0.0 0.00 0.00 0.00 88 1005.5
20260505170635 15 248 0.0 0.0 0.00 0.00 0.00 88 1005.6
20260505165149 15 248 0.0 0.0 0.00 0.00 0.00 87 1005.5
20260505164149 15 248 0.0 0.0 0.00 0.00 0.00 87 1005.6
20260505163148 15 248 0.0 0.0 0.03 0.00 0.00 87 1005.7
20260505162148 15 248 0.0 0.0 0.03 0.00 0.00 88 1005.7
20260505161147 14 248 0.0 0.0 0.05 0.00 0.00 87 1005.8
20260505160146 14 248 0.0 0.0 0.05 0.00 0.00 87 1005.8
20260505153146 14 248 0.0 0.0 0.05 0.00 0.00 86 1006.0
20260505152146 15 248 0.0 0.0 0.05 0.00 0.00 86 1006.1
20260505151149 15 248 0.0 0.0 0.05 0.00 0.00 86 1006.2
20260505150149 15 248 0.0 0.0 0.05 0.00 0.00 85 1006.3
20260505140147 15 248 0.0 0.0 0.05 0.00 0.00 83 1006.5
20260505130140 15 248 1.6 11.3 0.05 0.00 0.00 80 1006.9
20260505124144 -17 0.0 0.0 0.05 0.00 0.00 1006.8
20260505123141 15 209 0.0 14.5 0.05 0.00 0.00 77 1006.8
20260505122141 16 288 4.8 9.7 0.03 0.00 0.00 77 1006.9
20260505121141 16 292 0.0 4.8 0.03 0.00 0.00 72 1006.8
20260505120141 17 293 0.0 9.7 0.00 0.00 0.00 67 1006.8
20260505115141 17 293 0.0 0.0 0.00 0.00 0.00 66 1006.7
20260505114617 17 293 0.0 1.6 0.00 0.00 0.00 64 1006.8
20260505113152 17 293 3.2 9.7 0.00 0.00 0.00 64 1006.8
20260505112627 17 293 6.4 9.7 0.00 0.00 0.00 64 1006.9
20260505111139 17 296 1.6 6.4 0.00 0.00 0.00 64 1006.9
20260505110617 17 296 0.0 0.0 0.00 0.00 0.00 64 1007.0
20260505102136 17 296 0.0 0.0 0.00 0.00 0.00 65 1007.4
20260505101135 17 296 0.0 0.0 0.00 0.00 0.00 65 1007.3
20260505100624 17 296 0.0 0.0 0.00 0.00 0.00 65 1007.4
20260505095135 17 296 0.0 0.0 0.00 0.00 0.00 66 1007.4
20260505094138 17 296 0.0 0.0 0.00 0.00 0.00 65 1007.3
20260505093137 17 296 0.0 0.0 0.00 0.00 0.00 64 1007.4
20260505092137 17 296 0.0 0.0 0.00 0.00 0.00 63 1007.5
20260505091138 17 296 0.0 0.0 0.00 0.00 0.00 62 1007.5
20260505090613 17 296 0.0 0.0 0.00 0.00 0.00 61 1007.6
20260505085615 17 296 0.0 0.0 0.00 0.00 0.00 65 1007.6
20260505084136 17 296 0.0 0.0 0.00 0.00 0.00 70 1007.6
20260505083619 16 296 0.0 0.0 0.00 0.00 0.00 71 1007.6
20260505082607 16 296 0.0 0.0 0.00 0.00 0.00 73 1007.8
20260505081136 16 296 0.0 0.0 0.00 0.00 0.00 75 1007.8
20260505080615 15 296 0.0 0.0 0.00 0.00 0.00 76 1007.9
20260505075132 15 296 0.0 0.0 0.00 0.00 0.00 77 1008.1
20260505074132 15 296 0.0 0.0 0.00 0.00 0.00 79 1008.0
20260505073133 14 296 0.0 0.0 0.00 0.00 0.00 80 1008.1
20260505072134 14 296 0.0 0.0 0.00 0.00 0.00 82 1008.2
20260505071135 13 296 0.0 0.0 0.00 0.00 0.00 83 1008.3
20260505070617 13 296 0.0 0.0 0.00 0.00 0.00 82 1008.5
20260505065130 13 296 0.0 0.0 0.00 0.00 0.00 82 1008.4
20260505064131 13 296 0.0 0.0 0.00 0.00 0.00 83 1008.5
20260505063134 13 296 0.0 0.0 0.00 0.00 0.00 85 1008.5
20260505062133 13 296 0.0 0.0 0.00 0.00 0.00 85 1008.7
20260505061129 12 296 0.0 0.0 0.00 0.00 0.00 86 1008.6
20260505060130 12 296 0.0 0.0 0.00 0.00 0.00 87 1008.7
20260505055132 11 296 0.0 0.0 0.00 0.00 0.00 88 1008.8
20260505054132 11 296 0.0 0.0 0.00 0.00 0.00 88 1008.7
20260505053132 11 296 0.0 0.0 0.00 0.00 0.00 88 1008.6
20260505052133 11 296 0.0 0.0 0.00 0.00 0.00 88 1008.6
20260505051131 11 296 0.0 0.0 0.00 0.00 0.00 88 1008.5
20260505051054 11 296 0.0 0.0 0.00 0.00 0.00 88 1008.6
20260505041130 11 296 0.0 0.0 0.00 0.00 0.00 88 1008.8
20260505040129 11 296 0.0 0.0 0.00 0.00 0.00 88 1008.8
20260505035141 11 296 0.0 0.0 0.00 0.00 0.00 88 1008.9
20260505034614 11 296 0.0 0.0 0.00 0.00 0.00 88 1008.9
20260505033126 11 296 0.0 0.0 0.00 0.00 0.00 88 1009.0
20260505032612 11 296 0.0 0.0 0.00 0.00 0.00 88 1009.0
20260505031125 11 296 0.0 0.0 0.00 0.00 0.00 87 1009.1
20260505030125 11 296 0.0 0.0 0.00 0.00 0.00 87 1009.1
20260505025126 11 296 0.0 0.0 0.00 0.00 0.00 88 1009.3